Flag for Ethiopia Weather past 2 weeks in Addis Ababa, Ethiopia

Now
68 °F

Partly sunny.


Feels Like: 68 °F
Forecast: 51 / 64 °F
Wind: 7 mph from Southwest

Location: Addis Ababa Airport

Current Time: Jul 30, 2014 at 3:27:59 PM

Latest Report: Jul 30, 2014 at 3:00 PM


Visibility: N/A

Pressure: 30.30 "Hg

Humidity: 78%

Dew point: 61 °F

Location of Addis AbabaLocation

Historic Weather in Addis Ababa — Graph

°F

Addis Ababa temperature yesterday

Maximum temperature yesterday: 66 °F (at 4:00 PM)
Minimum temperature yesterday: 57 °F (at 5:00 AM)
Average temperature yesterday: 60 °F

Past Weeks' High & Low Weather Summary

 TemperatureHumidityPressure
High75 °F (Jul 23, 5:00 PM)100% (Jul 18, 7:00 AM)30.48 "Hg (Jul 18, 7:00 AM)
Low54 °F (Jul 20, 9:00 AM)49% (Jul 23, 1:00 PM)30.24 "Hg (Jul 23, 4:00 PM)
Average61 °F79%30.35 "Hg
* Reported Jul 15 2:00 PM — Jul 30 2:00 PM, Addis Ababa, Weather by CustomWeather, © 2014

Note: Actual official high and low records may vary slightly from our data, if they occured in-between our weather recording intervals... More about our weather records

Advertising

Addis Ababa weather history for previous 24 hours

 ConditionsComfort  
Time TempWeatherWind HumidityBarometerVisibility
2:00 PM
Jul 30
64 °FPartly sunny.7 mph78%30.33 "HgN/A
1:00 PM61 °FMostly cloudy.9 mph83%30.36 "HgN/A
12:00 PM63 °FFog.9 mph77%30.39 "Hg5 mi
11:00 AM59 °FFog.7 mph88%30.39 "Hg5 mi
10:00 AM59 °FDrizzle. Partly sunny.9 mph88%30.42 "Hg2 mi
9:00 AM57 °FFog.6 mph88%30.39 "Hg3 mi
8:00 AM57 °FFog.3 mph88%30.36 "Hg5 mi
7:00 AM57 °FCool.5 mph82%30.33 "HgN/A
6:00 AM57 °FPassing clouds.2 mph82%30.30 "HgN/A
4:00 AM57 °FPassing clouds.5 mph88%30.30 "HgN/A
3:00 AM57 °FPassing clouds.5 mph88%30.30 "HgN/A
2:00 AM57 °FPassing clouds.5 mph88%30.33 "HgN/A
1:00 AM59 °FPassing clouds.5 mph82%30.36 "HgN/A
12:00 AM59 °FPassing clouds.5 mph82%30.36 "HgN/A
11:00 PM
Jul 29
59 °FPassing clouds.7 mph82%30.33 "HgN/A
9:00 PM59 °FPassing clouds.7 mph88%30.33 "HgN/A
8:00 PM59 °FPassing clouds.5 mph88%30.33 "HgN/A
7:00 PM61 °FPassing clouds.6 mph83%30.30 "HgN/A
6:00 PM64 °FScattered clouds.7 mph68%30.30 "HgN/A
5:00 PM64 °FBroken clouds.12 mph73%30.30 "HgN/A
4:00 PM66 °FBroken clouds.7 mph68%30.30 "HgN/A
3:00 PM64 °FBroken clouds.9 mph73%30.33 "HgN/A
Weather by CustomWeather, © 2014

See weather overviewHow to use our weather pages